Time,TemperatureF,DewpointF,PressureIn,WindDirection,WindDirectionDegrees,WindSpeedMPH,WindSpeedGustMPH,Humidity,HourlyPrecipIn,Conditions,Clouds,dailyrainin,SolarRadiationWatts/m^2,SoftwareType,DateUTC
2014-11-28 00:00:00,6.5,3.0,30.28,ESE,102,14.0,18.0,85,0.00,,---,0.00,0.00,VWS V14.01,2014-11-28 06:00:00,
2014-11-28 00:05:00,6.6,3.1,30.28,ESE,102,14.0,16.0,85,0.00,,---,0.00,0.00,VWS V14.01,2014-11-28 06:05:00,
2014-11-28 00:10:00,6.8,3.3,30.27,East,98,14.0,19.0,85,0.00,,---,0.00,0.00,VWS V14.01,2014-11-28 06:10:00,
2014-11-28 00:15:00,7.0,3.5,30.26,East,100,16.0,20.0,85,0.00,,---,0.00,0.00,VWS V14.01,2014-11-28 06:15:00,
2014-11-28 00:20:00,7.2,3.7,30.26,ESE,103,16.0,16.0,85,0.00,,---,0.00,0.00,VWS V14.01,2014-11-28 06:20:00,
2014-11-28 00:25:00,7.3,3.8,30.26,ESE,114,18.0,18.0,85,0.00,,---,0.00,0.00,VWS V14.01,2014-11-28 06:25:00,
2014-11-28 00:30:00,7.6,3.8,30.25,ESE,107,15.0,19.0,84,0.00,,---,0.00,0.00,VWS V14.01,2014-11-28 06:30:00,
2014-11-28 00:35:00,7.7,3.9,30.25,ESE,113,17.0,19.0,84,0.00,,---,0.00,0.00,VWS V14.01,2014-11-28 06:35:00,
2014-11-28 00:40:00,7.9,4.1,30.24,ESE,119,15.0,20.0,84,0.00,,---,0.00,0.00,VWS V14.01,2014-11-28 06:40:00,
2014-11-28 00:45:00,8.0,4.2,30.24,ESE,111,14.0,20.0,84,0.00,,---,0.00,0.00,VWS V14.01,2014-11-28 06:45:00,
2014-11-28 00:50:00,8.2,4.4,30.24,ESE,119,16.0,17.0,84,0.00,,---,0.00,0.00,VWS V14.01,2014-11-28 06:50:00,
2014-11-28 00:55:00,8.4,4.6,30.23,ESE,115,12.0,17.0,84,0.00,,---,0.00,0.00,VWS V14.01,2014-11-28 06:55:00,
2014-11-28 01:00:00,8.5,4.7,30.22,ESE,116,15.0,19.0,84,0.00,,---,0.00,0.00,VWS V14.01,2014-11-28 07:00:00,
2014-11-28 01:05:00,8.6,4.8,30.22,ESE,120,13.0,13.0,84,0.00,,---,0.00,0.00,VWS V14.01,2014-11-28 07:05:00,
2014-11-28 01:10:00,8.8,5.0,30.22,ESE,119,14.0,17.0,84,0.00,,---,0.00,0.00,VWS V14.01,2014-11-28 07:10:00,
2014-11-28 01:15:00,8.9,5.1,30.22,ESE,109,14.0,17.0,84,0.00,,---,0.00,0.00,VWS V14.01,2014-11-28 07:15:00,
2014-11-28 01:20:00,9.0,5.2,30.21,ESE,117,18.0,18.0,84,0.00,,---,0.00,0.00,VWS V14.01,2014-11-28 07:20:00,
2014-11-28 01:25:00,9.2,5.4,30.21,ESE,111,14.0,18.0,84,0.00,,---,0.00,0.00,VWS V14.01,2014-11-28 07:25:00,
2014-11-28 01:30:00,9.3,5.4,30.20,SE,125,15.0,19.0,84,0.00,,---,0.00,0.00,VWS V14.01,2014-11-28 07:30:00,
2014-11-28 01:35:00,9.4,5.6,30.20,ESE,113,16.0,18.0,84,0.00,,---,0.00,0.00,VWS V14.01,2014-11-28 07:35:00,
2014-11-28 01:40:00,9.5,5.7,30.20,ESE,121,14.0,18.0,84,0.00,,---,0.00,0.00,VWS V14.01,2014-11-28 07:40:00,
2014-11-28 01:45:00,9.7,5.8,30.19,ESE,114,13.0,18.0,84,0.00,,---,0.00,0.00,VWS V14.01,2014-11-28 07:45:00,
2014-11-28 01:50:00,9.9,5.8,30.18,SE,128,13.0,15.0,83,0.00,,---,0.00,0.00,VWS V14.01,2014-11-28 07:50:00,
2014-11-28 01:55:00,9.9,5.8,30.18,ESE,115,14.0,18.0,83,0.00,,---,0.00,0.00,VWS V14.01,2014-11-28 07:55:00,
2014-11-28 02:00:00,10.0,6.1,30.18,ESE,121,12.0,18.0,84,0.00,,---,0.00,0.00,VWS V14.01,2014-11-28 08:00:00,
2014-11-28 02:05:00,10.2,6.1,30.17,ESE,123,18.0,20.0,83,0.00,,---,0.00,0.00,VWS V14.01,2014-11-28 08:05:00,
2014-11-28 02:10:00,10.3,6.2,30.17,ESE,113,13.0,20.0,83,0.00,,---,0.00,0.00,VWS V14.01,2014-11-28 08:10:00,
2014-11-28 02:15:00,10.4,6.5,30.17,SE,138,16.0,20.0,84,0.00,,---,0.00,0.00,VWS V14.01,2014-11-28 08:15:00,
2014-11-28 02:20:00,10.6,6.7,30.17,SE,130,15.0,16.0,84,0.00,,---,0.00,0.00,VWS V14.01,2014-11-28 08:20:00,
2014-11-28 02:25:00,10.8,6.7,30.17,SE,136,14.0,17.0,83,0.00,,---,0.00,0.00,VWS V14.01,2014-11-28 08:25:00,
2014-11-28 02:30:00,11.0,6.9,30.17,SE,146,13.0,18.0,83,0.00,,---,0.00,0.00,VWS V14.01,2014-11-28 08:30:00,
2014-11-28 02:35:00,11.3,7.2,30.16,SE,125,15.0,15.0,83,0.00,,---,0.00,0.00,VWS V14.01,2014-11-28 08:35:00,
2014-11-28 02:40:00,11.4,7.2,30.17,East,101,13.0,19.0,83,0.00,,---,0.00,0.00,VWS V14.01,2014-11-28 08:40:00,
2014-11-28 02:45:00,11.6,7.4,30.17,ESE,123,9.0,19.0,83,0.00,,---,0.00,0.00,VWS V14.01,2014-11-28 08:45:00,
2014-11-28 02:50:00,11.7,7.6,30.16,SE,128,13.0,14.0,83,0.00,,---,0.00,0.00,VWS V14.01,2014-11-28 08:50:00,
2014-11-28 02:55:00,11.8,7.6,30.17,SE,130,12.0,14.0,83,0.00,,---,0.00,0.00,VWS V14.01,2014-11-28 08:55:00,
2014-11-28 03:00:00,12.0,7.6,30.17,SE,142,9.0,14.0,82,0.00,,---,0.00,0.00,VWS V14.01,2014-11-28 09:00:00,
2014-11-28 03:05:00,12.1,7.7,30.17,ESE,122,11.0,14.0,82,0.00,,---,0.00,0.00,VWS V14.01,2014-11-28 09:05:00,
2014-11-28 03:10:00,12.2,7.8,30.17,SE,133,11.0,14.0,82,0.00,,---,0.00,0.00,VWS V14.01,2014-11-28 09:10:00,
2014-11-28 03:15:00,12.3,7.9,30.16,ESE,119,7.0,14.0,82,0.00,,---,0.00,0.00,VWS V14.01,2014-11-28 09:15:00,
2014-11-28 03:20:00,12.3,7.9,30.16,ESE,116,10.0,11.0,82,0.00,,---,0.00,0.00,VWS V14.01,2014-11-28 09:20:00,
2014-11-28 03:25:00,12.3,7.9,30.16,ESE,121,10.0,12.0,82,0.00,,---,0.00,0.00,VWS V14.01,2014-11-28 09:25:00,
2014-11-28 03:30:00,12.2,7.8,30.15,SE,128,12.0,12.0,82,0.00,,---,0.00,0.00,VWS V14.01,2014-11-28 09:30:00,
2014-11-28 03:35:00,12.3,7.9,30.14,SE,145,9.0,12.0,82,0.00,,---,0.00,0.00,VWS V14.01,2014-11-28 09:35:00,
2014-11-28 03:40:00,12.1,7.7,30.14,ESE,111,7.0,13.0,82,0.00,,---,0.00,0.00,VWS V14.01,2014-11-28 09:40:00,
2014-11-28 03:45:00,12.0,7.6,30.14,ESE,119,6.0,13.0,82,0.00,,---,0.00,0.00,VWS V14.01,2014-11-28 09:45:00,
2014-11-28 03:50:00,11.8,7.4,30.13,SE,124,9.0,10.0,82,0.00,,---,0.00,0.00,VWS V14.01,2014-11-28 09:50:00,
2014-11-28 03:55:00,11.6,7.4,30.13,East,101,7.0,11.0,83,0.00,,---,0.00,0.00,VWS V14.01,2014-11-28 09:55:00,
2014-11-28 04:00:00,11.4,7.2,30.13,ESE,114,8.0,11.0,83,0.00,,---,0.00,0.00,VWS V14.01,2014-11-28 10:00:00,
2014-11-28 04:05:00,11.3,7.2,30.12,ESE,115,9.0,10.0,83,0.00,,---,0.00,0.00,VWS V14.01,2014-11-28 10:05:00,
2014-11-28 04:10:00,11.1,7.0,30.12,ESE,105,9.0,10.0,83,0.00,,---,0.00,0.00,VWS V14.01,2014-11-28 10:10:00,
2014-11-28 04:15:00,10.9,7.0,30.12,ESE,106,8.0,10.0,84,0.00,,---,0.00,0.00,VWS V14.01,2014-11-28 10:15:00,
2014-11-28 04:20:00,10.7,6.8,30.12,ESE,111,10.0,10.0,84,0.00,,---,0.00,0.00,VWS V14.01,2014-11-28 10:20:00,
2014-11-28 04:25:00,10.5,6.6,30.11,ESE,115,9.0,10.0,84,0.00,,---,0.00,0.00,VWS V14.01,2014-11-28 10:25:00,
2014-11-28 04:30:00,10.4,6.5,30.11,ESE,105,7.0,10.0,84,0.00,,---,0.00,0.00,VWS V14.01,2014-11-28 10:30:00,
2014-11-28 04:35:00,10.3,6.7,30.10,ESE,110,9.0,10.0,85,0.00,,---,0.00,0.00,VWS V14.01,2014-11-28 10:35:00,
2014-11-28 04:40:00,10.2,6.6,30.10,East,99,7.0,10.0,85,0.00,,---,0.00,0.00,VWS V14.01,2014-11-28 10:40:00,
2014-11-28 04:45:00,10.1,6.5,30.10,ESE,109,5.0,10.0,85,0.00,,---,0.00,0.00,VWS V14.01,2014-11-28 10:45:00,
2014-11-28 04:50:00,10.0,6.4,30.10,ESE,113,11.0,11.0,85,0.00,,---,0.00,0.00,VWS V14.01,2014-11-28 10:50:00,
2014-11-28 04:55:00,9.9,6.3,30.09,ESE,119,7.0,11.0,85,0.00,,---,0.00,0.00,VWS V14.01,2014-11-28 10:55:00,
2014-11-28 05:00:00,9.9,6.3,30.09,ESE,107,8.0,11.0,85,0.00,,---,0.00,0.00,VWS V14.01,2014-11-28 11:00:00,
2014-11-28 05:05:00,9.9,6.3,30.09,ESE,118,9.0,9.0,85,0.00,,---,0.00,0.00,VWS V14.01,2014-11-28 11:05:00,
2014-11-28 05:10:00,9.8,6.2,30.09,ESE,113,5.0,9.0,85,0.00,,---,0.00,0.00,VWS V14.01,2014-11-28 11:10:00,
2014-11-28 05:15:00,9.8,6.2,30.09,ESE,107,6.0,9.0,85,0.00,,---,0.00,0.00,VWS V14.01,2014-11-28 11:15:00,
2014-11-28 05:20:00,9.7,6.1,30.09,ESE,111,6.0,6.0,85,0.00,,---,0.00,0.00,VWS V14.01,2014-11-28 11:20:00,
2014-11-28 05:25:00,9.6,6.0,30.08,ESE,109,5.0,7.0,85,0.00,,---,0.00,0.00,VWS V14.01,2014-11-28 11:25:00,
2014-11-28 05:30:00,9.5,5.9,30.08,ESE,103,7.0,7.0,85,0.00,,---,0.00,0.00,VWS V14.01,2014-11-28 11:30:00,
2014-11-28 05:35:00,9.5,6.2,30.08,ESE,109,5.0,6.0,86,0.00,,---,0.00,0.00,VWS V14.01,2014-11-28 11:35:00,
2014-11-28 05:40:00,9.4,5.8,30.08,ESE,114,6.0,6.0,85,0.00,,---,0.00,0.00,VWS V14.01,2014-11-28 11:40:00,
2014-11-28 05:45:00,9.3,5.7,30.07,ESE,107,5.0,6.0,85,0.00,,---,0.00,0.00,VWS V14.01,2014-11-28 11:45:00,
2014-11-28 05:50:00,9.2,5.9,30.08,ESE,113,5.0,6.0,86,0.00,,---,0.00,0.00,VWS V14.01,2014-11-28 11:50:00,
2014-11-28 05:55:00,9.1,5.5,30.07,ESE,116,5.0,6.0,85,0.00,,---,0.00,0.00,VWS V14.01,2014-11-28 11:55:00,
2014-11-28 06:00:00,9.0,5.4,30.07,ESE,109,6.0,6.0,85,0.00,,---,0.00,0.00,VWS V14.01,2014-11-28 12:00:00,
2014-11-28 06:05:00,8.9,5.3,30.07,ESE,111,6.0,7.0,85,0.00,,---,0.00,0.00,VWS V14.01,2014-11-28 12:05:00,
2014-11-28 06:10:00,8.7,5.4,30.06,ESE,109,7.0,9.0,86,0.00,,---,0.00,0.00,VWS V14.01,2014-11-28 12:10:00,
2014-11-28 06:15:00,8.7,5.1,30.06,East,96,5.0,9.0,85,0.00,,---,0.00,0.00,VWS V14.01,2014-11-28 12:15:00,
2014-11-28 06:20:00,8.7,5.4,30.06,ESE,103,5.0,5.0,86,0.00,,---,0.00,0.00,VWS V14.01,2014-11-28 12:20:00,
2014-11-28 06:25:00,8.6,5.3,30.06,ESE,104,5.0,7.0,86,0.00,,---,0.00,0.00,VWS V14.01,2014-11-28 12:25:00,
2014-11-28 06:30:00,8.7,5.4,30.06,East,100,5.0,7.0,86,0.00,,---,0.00,0.00,VWS V14.01,2014-11-28 12:30:00,
2014-11-28 06:35:00,8.7,5.4,30.06,East,100,5.0,5.0,86,0.00,,---,0.00,0.00,VWS V14.01,2014-11-28 12:35:00,
2014-11-28 06:40:00,8.8,5.5,30.06,East,94,4.0,6.0,86,0.00,,---,0.00,0.00,VWS V14.01,2014-11-28 12:40:00,
2014-11-28 06:45:00,8.9,5.6,30.06,East,90,4.0,6.0,86,0.00,,---,0.00,0.00,VWS V14.01,2014-11-28 12:45:00,